This is the latest recevied weather packets stored in our database for station/object WE1C. If no packets are shown the sender has not sent any weather packets the latest 1 day(s).
| Time | Temp. | Humidity | Pressure | Rain* | Wind** | Luminosity | Snow |
|---|---|---|---|---|---|---|---|
| 1778027581 | 18.89° C | 58% | 1038.2 hPa | 0 mm | 1.34 m/s, 60° | 0 W/m² | - |
| 1778027277 | 18.89° C | 58% | 1038.1 hPa | 0 mm | 1.34 m/s, 201° | 0 W/m² | - |
| 1778026973 | 18.89° C | 57% | 1038.3 hPa | 0 mm | 0.89 m/s, 176° | 0 W/m² | - |
| 1778026669 | 19.44° C | 56% | 1037.9 hPa | 0 mm | 1.34 m/s, 200° | 0 W/m² | - |
| 1778026367 | 19.44° C | 56% | 1037.9 hPa | 0 mm | 1.34 m/s, 164° | 0 W/m² | - |
| 1778026063 | 19.44° C | 55% | 1037.5 hPa | 0 mm | 0.89 m/s, 193° | 0 W/m² | - |
| 1778025761 | 20° C | 55% | 1037.5 hPa | 0 mm | 1.34 m/s, 209° | 0 W/m² | - |
| 1778025458 | 20° C | 55% | 1037.6 hPa | 0 mm | 0 m/s | 0 W/m² | - |
| 1778025155 | 20° C | 54% | 1037.5 hPa | 0 mm | 1.34 m/s, 196° | 1 W/m² | - |
| 1778024852 | 20° C | 54% | 1037.3 hPa | 0 mm | 0.89 m/s, 194° | 2 W/m² | - |
| 1778024550 | 20.56° C | 53% | 1037.2 hPa | 0 mm | 0.45 m/s, 189° | 4 W/m² | - |
| 1778024246 | 20.56° C | 52% | 1037.3 hPa | 0 mm | 0.45 m/s, 197° | 7 W/m² | - |
| 1778023944 | 20.56° C | 52% | 1037 hPa | 0 mm | 0.89 m/s, 200° | 11 W/m² | - |
| 1778023641 | 21.11° C | 51% | 1037 hPa | 0 mm | 0.45 m/s, 212° | 16 W/m² | - |
| 1778023338 | 21.11° C | 51% | 1037.1 hPa | 0 mm | 0.89 m/s, 46° | 21 W/m² | - |
| 1778023035 | 21.67° C | 50% | 1037.1 hPa | 0 mm | 1.79 m/s, 217° | 29 W/m² | - |
| 1778022734 | 21.67° C | 50% | 1036.9 hPa | 0 mm | 0.89 m/s, 202° | 36 W/m² | - |
| 1778022432 | 21.67° C | 50% | 1037.1 hPa | 0 mm | 0.89 m/s, 116° | 43 W/m² | - |
| 1778022128 | 21.67° C | 49% | 1036.6 hPa | 0 mm | 0.45 m/s, 196° | 47 W/m² | - |
| 1778021825 | 21.67° C | 49% | 1036.7 hPa | 0 mm | 1.34 m/s, 196° | 54 W/m² | - |
| 1778021521 | 22.22° C | 49% | 1036.4 hPa | 0 mm | 0.89 m/s, 192° | 55 W/m² | - |
| 1778021216 | 22.22° C | 48% | 1036.4 hPa | 0 mm | 1.34 m/s, 192° | 61 W/m² | - |
| 1778020915 | 22.78° C | 48% | 1036.6 hPa | 0 mm | 1.34 m/s, 130° | 64 W/m² | - |
| 1778020612 | 22.78° C | 47% | 1036.5 hPa | 0 mm | 0.89 m/s, 77° | 68 W/m² | - |
| 1778020308 | 22.78° C | 47% | 1036.4 hPa | 0 mm | 0.89 m/s, 187° | 72 W/m² | - |
* Rain latest hour (hover to see other rain measurements)
** Current wind speed in m/s (hover to see current wind gust speed)